| time (UTC) | temp F | wind direction | speed MPH | gust MPH | rain 1hr in | rain 24hr in | rain mn in | humidity % | barometer mb |
| 20260505002031 | 54 | 178 | 3.0 | 7.0 | 0.00 | 0.00 | 0.00 | 68 | 1004.6 |
| 20260505001545 | 55 | 160 | 3.0 | 7.0 | 0.00 | 0.00 | 0.00 | 67 | 1004.6 |
| 20260505001030 | 56 | 159 | 3.0 | 7.0 | 0.00 | 0.00 | 0.00 | 65 | 1004.6 |
| 20260505000532 | 56 | 145 | 3.0 | 7.0 | 0.00 | 0.00 | 0.00 | 64 | 1004.5 |
| 20260505000103 | 57 | 187 | 3.0 | 7.0 | 0.00 | 0.00 | 0.00 | 62 | 1004.4 |
| 20260504235531 | 58 | 200 | 3.0 | 7.0 | 0.00 | 0.00 | 0.00 | 60 | 1004.5 |
| 20260504235031 | 59 | 187 | 2.0 | 7.0 | 0.00 | 0.00 | 0.00 | 58 | 1004.3 |
| 20260504234603 | 61 | 151 | 3.0 | 7.0 | 0.00 | 0.00 | 0.00 | 54 | 1004.3 |
| 20260504234031 | 63 | 139 | 3.0 | 7.0 | 0.00 | 0.00 | 0.00 | 50 | 1004.2 |
| 20260504233531 | 66 | 190 | 2.0 | 7.0 | 0.00 | 0.00 | 0.00 | 45 | 1004.2 |
| 20260504233040 | 68 | 206 | 2.0 | 6.0 | 0.00 | 0.00 | 0.00 | 40 | 1003.9 |
| 20260504232531 | 69 | 273 | 1.0 | 4.0 | 0.00 | 0.00 | 0.00 | 37 | 1003.9 |
| 20260504232032 | 69 | 265 | 1.0 | 5.0 | 0.00 | 0.00 | 0.00 | 38 | 1003.8 |
| 20260504231542 | 69 | 265 | 1.0 | 5.0 | 0.00 | 0.00 | 0.00 | 37 | 1003.7 |
| 20260504231031 | 69 | 304 | 1.0 | 9.0 | 0.00 | 0.00 | 0.00 | 37 | 1003.6 |
| 20260504230530 | 70 | 305 | 2.0 | 9.0 | 0.00 | 0.00 | 0.00 | 37 | 1003.6 |
| 20260504230039 | 70 | 229 | 2.0 | 7.0 | 0.00 | 0.00 | 0.00 | 37 | 1003.5 |
| 20260504225532 | 69 | 309 | 2.0 | 7.0 | 0.00 | 0.00 | 0.00 | 37 | 1003.5 |
| 20260504225031 | 69 | 276 | 2.0 | 7.0 | 0.00 | 0.00 | 0.00 | 36 | 1003.5 |
| 20260504224603 | 69 | 297 | 2.0 | 5.0 | 0.00 | 0.00 | 0.00 | 37 | 1003.5 |
| 20260504224030 | 69 | 306 | 1.0 | 5.0 | 0.00 | 0.00 | 0.00 | 37 | 1003.4 |
| 20260504223531 | 69 | 221 | 1.0 | 8.0 | 0.00 | 0.00 | 0.00 | 36 | 1003.3 |
| 20260504223048 | 69 | 275 | 3.0 | 9.0 | 0.00 | 0.00 | 0.00 | 36 | 1003.3 |
| 20260504222530 | 69 | 258 | 3.0 | 9.0 | 0.00 | 0.00 | 0.00 | 36 | 1003.2 |
| 20260504222030 | 69 | 309 | 2.0 | 10.0 | 0.00 | 0.00 | 0.00 | 37 | 1003.2 |
| 20260504221542 | 69 | 294 | 2.0 | 10.0 | 0.00 | 0.00 | 0.00 | 37 | 1003.2 |
| 20260504221031 | 69 | 300 | 4.0 | 12.0 | 0.00 | 0.00 | 0.00 | 37 | 1003.2 |
| 20260504220533 | 69 | 313 | 2.0 | 12.0 | 0.00 | 0.00 | 0.00 | 37 | 1003.1 |
| 20260504220040 | 70 | 331 | 4.0 | 12.0 | 0.00 | 0.00 | 0.00 | 36 | 1003.2 |
| 20260504215531 | 70 | 320 | 3.0 | 9.0 | 0.00 | 0.00 | 0.00 | 36 | 1003.2 |
| 20260504215030 | 70 | 304 | 2.0 | 10.0 | 0.00 | 0.00 | 0.00 | 36 | 1003.3 |
| 20260504214540 | 70 | 300 | 2.0 | 10.0 | 0.00 | 0.00 | 0.00 | 36 | 1003.4 |
| 20260504214030 | 70 | 280 | 5.0 | 10.0 | 0.00 | 0.00 | 0.00 | 36 | 1003.3 |
| 20260504213530 | 70 | 311 | 3.0 | 13.0 | 0.00 | 0.00 | 0.00 | 36 | 1003.2 |
| 20260504213121 | 70 | 292 | 2.0 | 13.0 | 0.00 | 0.00 | 0.00 | 36 | 1003.2 |
| 20260504212531 | 70 | 227 | 4.0 | 12.0 | 0.00 | 0.00 | 0.00 | 35 | 1003.1 |
| 20260504212029 | 70 | 308 | 4.0 | 13.0 | 0.00 | 0.00 | 0.00 | 35 | 1003.3 |
| 20260504211543 | 70 | 258 | 2.0 | 13.0 | 0.00 | 0.00 | 0.00 | 36 | 1003.3 |
| 20260504211029 | 70 | 316 | 5.0 | 13.0 | 0.00 | 0.00 | 0.00 | 35 | 1003.2 |
| 20260504210534 | 70 | 286 | 5.0 | 13.0 | 0.00 | 0.00 | 0.00 | 35 | 1003.1 |
| 20260504210041 | 70 | 328 | 8.0 | 13.0 | 0.00 | 0.00 | 0.00 | 33 | 1003.1 |
| 20260504205531 | 70 | 290 | 5.0 | 12.0 | 0.00 | 0.00 | 0.00 | 35 | 1003.2 |
| 20260504205030 | 70 | 302 | 5.0 | 14.0 | 0.00 | 0.00 | 0.00 | 36 | 1003.1 |
| 20260504204541 | 70 | 302 | 6.0 | 14.0 | 0.00 | 0.00 | 0.00 | 36 | 1003.1 |
| 20260504204030 | 70 | 257 | 4.0 | 11.0 | 0.00 | 0.00 | 0.00 | 36 | 1003.1 |
| 20260504203530 | 70 | 306 | 5.0 | 12.0 | 0.00 | 0.00 | 0.00 | 37 | 1003.1 |
| 20260504203040 | 70 | 280 | 5.0 | 12.0 | 0.00 | 0.00 | 0.00 | 36 | 1003.2 |
| 20260504202531 | 70 | 255 | 4.0 | 9.0 | 0.00 | 0.00 | 0.00 | 37 | 1003.2 |
| 20260504202030 | 70 | 310 | 1.0 | 7.0 | 0.00 | 0.00 | 0.00 | 38 | 1003.2 |
| 20260504201540 | 70 | 201 | 2.0 | 10.0 | 0.00 | 0.00 | 0.00 | 37 | 1003.2 |
| 20260504201031 | 70 | 309 | 1.0 | 10.0 | 0.00 | 0.00 | 0.00 | 38 | 1003.1 |
| 20260504200530 | 69 | 319 | 2.0 | 10.0 | 0.00 | 0.00 | 0.00 | 39 | 1003.2 |
| 20260504200049 | 69 | 252 | 2.0 | 7.0 | 0.00 | 0.00 | 0.00 | 39 | 1003.2 |
| 20260504195532 | 69 | 204 | 2.0 | 11.0 | 0.00 | 0.00 | 0.00 | 39 | 1003.2 |
| 20260504195031 | 69 | 257 | 5.0 | 11.0 | 0.00 | 0.00 | 0.00 | 37 | 1003.2 |
| 20260504194555 | 70 | 276 | 3.0 | 13.0 | 0.00 | 0.00 | 0.00 | 38 | 1003.0 |
| 20260504194031 | 69 | 309 | 6.0 | 13.0 | 0.00 | 0.00 | 0.00 | 39 | 1003.2 |
| 20260504193531 | 69 | 281 | 6.0 | 10.0 | 0.00 | 0.00 | 0.00 | 38 | 1003.1 |
| 20260504193051 | 69 | 322 | 5.0 | 10.0 | 0.00 | 0.00 | 0.00 | 38 | 1003.2 |
| 20260504192531 | 69 | 304 | 4.0 | 10.0 | 0.00 | 0.00 | 0.00 | 40 | 1003.3 |
| 20260504192032 | 69 | 274 | 3.0 | 11.0 | 0.00 | 0.00 | 0.00 | 40 | 1003.2 |
| 20260504191539 | 68 | 320 | 4.0 | 13.0 | 0.00 | 0.00 | 0.00 | 40 | 1003.4 |
| 20260504191031 | 67 | 335 | 7.0 | 13.0 | 0.00 | 0.00 | 0.00 | 41 | 1003.4 |
| 20260504190533 | 66 | 333 | 5.0 | 13.0 | 0.00 | 0.00 | 0.00 | 40 | 1003.5 |
| 20260504190041 | 66 | 306 | 4.0 | 13.0 | 0.00 | 0.00 | 0.00 | 39 | 1003.5 |
| 20260504185531 | 66 | 302 | 5.0 | 13.0 | 0.00 | 0.00 | 0.00 | 39 | 1003.5 |
| 20260504185030 | 66 | 323 | 3.0 | 12.0 | 0.00 | 0.00 | 0.00 | 38 | 1003.5 |
| 20260504184543 | 66 | 284 | 6.0 | 13.0 | 0.00 | 0.00 | 0.00 | 38 | 1003.5 |
| 20260504184031 | 66 | 288 | 5.0 | 14.0 | 0.00 | 0.00 | 0.00 | 38 | 1003.4 |
| 20260504183531 | 66 | 332 | 8.0 | 14.0 | 0.00 | 0.00 | 0.00 | 38 | 1003.5 |
| 20260504183040 | 66 | 302 | 3.0 | 14.0 | 0.00 | 0.00 | 0.00 | 38 | 1003.4 |
| 20260504182530 | 66 | 265 | 5.0 | 14.0 | 0.00 | 0.00 | 0.00 | 38 | 1003.3 |
| 20260504182031 | 66 | 300 | 8.0 | 13.0 | 0.00 | 0.00 | 0.00 | 37 | 1003.3 |
| 20260504181543 | 67 | 267 | 6.0 | 16.0 | 0.00 | 0.00 | 0.00 | 38 | 1003.3 |
| 20260504181031 | 67 | 286 | 8.0 | 16.0 | 0.00 | 0.00 | 0.00 | 37 | 1003.3 |
| 20260504180531 | 67 | 285 | 5.0 | 15.0 | 0.00 | 0.00 | 0.00 | 37 | 1003.3 |
| 20260504180039 | 67 | 302 | 7.0 | 16.0 | 0.00 | 0.00 | 0.00 | 36 | 1003.3 |
| 20260504175530 | 67 | 309 | 6.0 | 16.0 | 0.00 | 0.00 | 0.00 | 37 | 1003.3 |
| 20260504175033 | 67 | 322 | 6.0 | 15.0 | 0.00 | 0.00 | 0.00 | 37 | 1003.3 |
| 20260504174539 | 67 | 311 | 7.0 | 15.0 | 0.00 | 0.00 | 0.00 | 36 | 1003.2 |
| 20260504174031 | 68 | 321 | 6.0 | 11.0 | 0.00 | 0.00 | 0.00 | 35 | 1003.3 |
| 20260504173530 | 68 | 288 | 6.0 | 12.0 | 0.00 | 0.00 | 0.00 | 36 | 1003.2 |
| 20260504173048 | 68 | 211 | 8.0 | 19.0 | 0.00 | 0.00 | 0.00 | 36 | 1003.5 |
| 20260504172532 | 68 | 355 | 8.0 | 19.0 | 0.00 | 0.00 | 0.00 | 35 | 1003.3 |
| 20260504172031 | 69 | 205 | 5.0 | 16.0 | 0.00 | 0.00 | 0.00 | 35 | 1003.3 |
| 20260504171540 | 69 | 262 | 8.0 | 16.0 | 0.00 | 0.00 | 0.00 | 36 | 1003.1 |
| 20260504171032 | 68 | 286 | 8.0 | 15.0 | 0.00 | 0.00 | 0.00 | 36 | 1003.3 |
| 20260504170531 | 68 | 246 | 8.0 | 13.0 | 0.00 | 0.00 | 0.00 | 36 | 1003.4 |
| 20260504151030 | 61 | 298 | 7.0 | 11.0 | 0.00 | 0.00 | 0.00 | 47 | 1004.8 |
| 20260504150530 | 61 | 253 | 5.0 | 11.0 | 0.00 | 0.00 | 0.00 | 48 | 1004.6 |
| 20260504141030 | 59 | 205 | 2.0 | 15.0 | 0.00 | 0.00 | 0.00 | 52 | 1005.6 |
| 20260504140530 | 59 | 232 | 5.0 | 15.0 | 0.00 | 0.00 | 0.00 | 52 | 1005.6 |
| 20260504130531 | 54 | 310 | 3.0 | 9.0 | 0.00 | 0.00 | 0.00 | 62 | 1006.2 |
| 20260504110531 | 46 | 275 | 1.0 | 5.0 | 0.00 | 0.00 | 0.00 | 64 | 1006.7 |
| 20260504100530 | 44 | 252 | 1.0 | 3.0 | 0.00 | 0.00 | 0.00 | 64 | 1006.6 |
| 20260504090115 | 43 | 275 | 2.0 | 5.0 | 0.00 | 0.00 | 0.00 | 61 | 1006.5 |
| 20260504081542 | 42 | 292 | 2.0 | 4.0 | 0.00 | 0.00 | 0.00 | 63 | 1006.6 |
| 20260504081031 | 42 | 278 | 1.0 | 4.0 | 0.00 | 0.00 | 0.00 | 63 | 1006.6 |
| 20260504080528 | 42 | 279 | 1.0 | 3.0 | 0.00 | 0.00 | 0.00 | 63 | 1006.6 |
| 20260504050533 | 42 | 244 | 1.0 | 8.0 | 0.00 | 0.00 | 0.00 | 65 | 1006.5 |
| 20260504050107 | 42 | 254 | 2.0 | 8.0 | 0.00 | 0.00 | 0.00 | 65 | 1006.4 |
| 20260504045531 | 42 | 241 | 1.0 | 7.0 | 0.00 | 0.00 | 0.00 | 64 | 1006.5 |
| 20260504045031 | 42 | 248 | 1.0 | 7.0 | 0.00 | 0.00 | 0.00 | 64 | 1006.5 |
| 20260504044558 | 42 | 227 | 1.0 | 4.0 | 0.00 | 0.00 | 0.00 | 63 | 1006.4 |
| 20260504044031 | 42 | 259 | 1.0 | 4.0 | 0.00 | 0.00 | 0.00 | 63 | 1006.4 |
| 20260504043531 | 42 | 272 | 1.0 | 4.0 | 0.00 | 0.00 | 0.00 | 63 | 1006.3 |
| 20260504043044 | 42 | 276 | 2.0 | 4.0 | 0.00 | 0.00 | 0.00 | 63 | 1006.4 |
| 20260504042531 | 42 | 267 | 1.0 | 3.0 | 0.00 | 0.00 | 0.00 | 64 | 1006.3 |
| 20260504042030 | 42 | 250 | 1.0 | 3.0 | 0.00 | 0.00 | 0.00 | 64 | 1006.3 |
| 20260504041544 | 42 | 238 | 1.0 | 3.0 | 0.00 | 0.00 | 0.00 | 64 | 1006.4 |
| 20260504041030 | 42 | 253 | 1.0 | 3.0 | 0.00 | 0.00 | 0.00 | 64 | 1006.3 |
| 20260504040533 | 41 | 256 | 1.0 | 3.0 | 0.00 | 0.00 | 0.00 | 65 | 1006.3 |
| 20260504040046 | 41 | 266 | 1.0 | 3.0 | 0.00 | 0.00 | 0.00 | 65 | 1006.3 |
| 20260504035531 | 41 | 278 | 1.0 | 3.0 | 0.00 | 0.00 | 0.00 | 66 | 1006.2 |
| 20260504035029 | 41 | 280 | 1.0 | 3.0 | 0.00 | 0.00 | 0.00 | 66 | 1006.2 |
| 20260504034551 | 41 | 0 | 0.0 | 2.0 | 0.00 | 0.00 | 0.00 | 66 | 1006.1 |
| 20260504034030 | 41 | 0 | 0.0 | 3.0 | 0.00 | 0.00 | 0.00 | 65 | 1006.1 |
| 20260504033530 | 41 | 0 | 0.0 | 3.0 | 0.00 | 0.00 | 0.00 | 65 | 1006.1 |
| 20260504033054 | 42 | 0 | 0.0 | 0.0 | 0.00 | 0.00 | 0.00 | 64 | 1006.1 |
| 20260504032530 | 42 | 0 | 0.0 | 0.0 | 0.00 | 0.00 | 0.00 | 64 | 1006.1 |
| 20260504032032 | 42 | 0 | 0.0 | 0.0 | 0.00 | 0.00 | 0.00 | 64 | 1006.1 |
| 20260504031549 | 42 | 0 | 0.0 | 0.0 | 0.00 | 0.00 | 0.00 | 63 | 1006.0 |
| 20260504031030 | 43 | 0 | 0.0 | 1.0 | 0.00 | 0.00 | 0.00 | 63 | 1006.1 |
| 20260504030530 | 43 | 0 | 0.0 | 1.0 | 0.00 | 0.00 | 0.00 | 62 | 1006.1 |
| 20260504030050 | 43 | 0 | 0.0 | 2.0 | 0.00 | 0.00 | 0.00 | 62 | 1006.1 |
| 20260504025531 | 43 | 0 | 0.0 | 2.0 | 0.00 | 0.00 | 0.00 | 61 | 1006.0 |
| 20260504025033 | 43 | 290 | 1.0 | 2.0 | 0.00 | 0.00 | 0.00 | 61 | 1006.1 |
| 20260504024551 | 43 | 290 | 0.0 | 2.0 | 0.00 | 0.00 | 0.00 | 61 | 1006.0 |
| 20260504024030 | 43 | 290 | 1.0 | 2.0 | 0.00 | 0.00 | 0.00 | 61 | 1006.0 |
| 20260504023531 | 43 | 290 | 1.0 | 2.0 | 0.00 | 0.00 | 0.00 | 61 | 1006.0 |
| 20260504023047 | 43 | 290 | 1.0 | 2.0 | 0.00 | 0.00 | 0.00 | 61 | 1006.0 |
| 20260504022531 | 43 | 290 | 1.0 | 2.0 | 0.00 | 0.00 | 0.00 | 61 | 1006.0 |
| 20260504022030 | 43 | 290 | 0.0 | 2.0 | 0.00 | 0.00 | 0.00 | 61 | 1006.1 |
| 20260504021544 | 44 | 0 | 0.0 | 3.0 | 0.00 | 0.00 | 0.00 | 60 | 1006.1 |
| 20260504021031 | 44 | 0 | 0.0 | 3.0 | 0.00 | 0.00 | 0.00 | 60 | 1006.1 |
| 20260504020532 | 44 | 290 | 1.0 | 2.0 | 0.00 | 0.00 | 0.00 | 59 | 1006.2 |
| 20260504020051 | 44 | 290 | 0.0 | 2.0 | 0.00 | 0.00 | 0.00 | 59 | 1006.2 |
| 20260504015531 | 44 | 290 | 0.0 | 2.0 | 0.00 | 0.01 | 0.00 | 59 | 1006.2 |
| 20260504015031 | 45 | 290 | 0.0 | 3.0 | 0.00 | 0.01 | 0.00 | 59 | 1006.1 |
| 20260504014547 | 45 | 288 | 1.0 | 3.0 | 0.00 | 0.01 | 0.00 | 58 | 1006.0 |
| 20260504014030 | 45 | 265 | 1.0 | 4.0 | 0.00 | 0.01 | 0.00 | 58 | 1006.1 |
| 20260504013530 | 45 | 277 | 1.0 | 6.0 | 0.00 | 0.01 | 0.00 | 58 | 1006.1 |
| 20260504013051 | 46 | 288 | 3.0 | 6.0 | 0.00 | 0.01 | 0.00 | 58 | 1005.9 |
| 20260504012531 | 46 | 292 | 2.0 | 6.0 | 0.00 | 0.01 | 0.00 | 57 | 1005.8 |
| 20260504012033 | 46 | 304 | 2.0 | 5.0 | 0.00 | 0.01 | 0.00 | 57 | 1005.7 |
| 20260504011548 | 46 | 296 | 2.0 | 5.0 | 0.00 | 0.01 | 0.00 | 57 | 1005.8 |
| 20260504011031 | 46 | 305 | 3.0 | 5.0 | 0.00 | 0.01 | 0.00 | 56 | 1005.6 |
| 20260504010531 | 46 | 314 | 3.0 | 7.0 | 0.00 | 0.01 | 0.00 | 55 | 1005.6 |
| 20260504010055 | 46 | 315 | 3.0 | 7.0 | 0.00 | 0.01 | 0.00 | 55 | 1005.5 |
| 20260504005531 | 46 | 292 | 4.0 | 8.0 | 0.00 | 0.02 | 0.00 | 55 | 1005.4 |
| 20260504005031 | 47 | 321 | 3.0 | 9.0 | 0.00 | 0.02 | 0.00 | 54 | 1005.3 |
| 20260504004548 | 47 | 318 | 4.0 | 9.0 | 0.00 | 0.02 | 0.00 | 54 | 1005.3 |
| 20260504004032 | 47 | 323 | 6.0 | 11.0 | 0.00 | 0.02 | 0.00 | 54 | 1005.2 |
| 20260504003531 | 47 | 327 | 5.0 | 11.0 | 0.00 | 0.02 | 0.00 | 54 | 1005.1 |
| 20260504003051 | 47 | 333 | 7.0 | 12.0 | 0.00 | 0.02 | 0.00 | 53 | 1005.0 |
| 20260504002531 | 48 | 342 | 7.0 | 12.0 | 0.00 | 0.02 | 0.00 | 53 | 1005.0 |